GFSGL_925_temp_000.txt.gz
Temp
25 25 25 24 23 23 23 22 22 22 21 21 21 21 21 21 21 20 20 20 20 20 20 20 19 19 18 18 17 17 16 15 12 13 14 15 14 13 14 14 15 16 17
25 25 24 24 23 23 23 22 22 21 21 21 21 21 21 21 21 20 20 20 20 20 20 20 19 19 18 18 17 17 16 16 13 12 13 13 13 14 12 13 14 15 16
24 24 24 24 24 23 23 23 22 22 21 21 21 21 21 21 21 21 21 21 20 20 20 19 19 19 18 18 17 17 17 16 15 12 12 12 13 13 13 14 14 14 15
24 24 24 24 24 24 23 22 22 22 21 21 21 21 21 21 21 21 21 21 20 20 20 20 19 19 18 18 17 17 16 16 15 12 12 12 12 13 13 13 13 14 14
24 23 24 24 24 24 23 23 22 22 21 21 21 21 21 21 22 21 21 21 20 20 20 19 19 18 18 18 17 17 16 16 14 13 13 12 13 13 13 14 13 13 14
23 23 24 24 24 24 23 23 22 22 22 22 22 22 21 22 21 21 20 20 20 20 20 20 19 18 18 18 17 17 16 16 15 13 12 12 13 13 13 13 13 13 13
23 23 24 24 23 23 23 23 22 22 22 22 22 22 22 22 21 21 20 20 20 20 19 18 18 18 18 17 17 17 16 16 16 14 13 13 12 12 12 12 12 12 13
22 23 23 24 23 23 23 23 23 23 22 22 22 21 21 21 21 20 20 20 20 19 18 17 17 17 18 17 17 16 16 16 15 15 13 13 13 12 12 12 12 12 12
21 22 24 24 23 23 23 23 23 23 22 22 20 21 19 20 21 20 19 19 19 18 17 16 16 17 17 16 15 15 15 15 14 14 14 14 13 13 12 12 12 12 13
21 23 25 25 24 24 24 24 23 23 22 22 21 21 19 20 20 20 19 19 18 17 16 16 16 16 15 15 14 13 11 11 11 12 14 14 13 12 12 11 12 12 13
23 25 25 24 25 25 24 24 23 22 19 18 18 19 19 19 19 19 18 17 16 15 15 15 15 14 14 14 14 12 10 10 11 11 11 12 12 12 11 11 12 12 13
21 22 21 20 19 21 24 23 23 20 19 19 20 19 18 18 18 18 17 15 15 15 14 14 14 14 13 13 13 11 11 11 10 10 10 10 11 11 11 11 12 13 13
20 20 21 21 20 17 19 23 20 19 19 19 18 18 17 17 16 16 16 15 15 14 14 14 14 13 12 12 12 11 10 10 9 9 9 9 10 10 10 11 12 12 13
19 19 19 20 20 20 19 20 20 20 18 18 18 17 15 15 15 15 15 15 15 14 14 15 13 12 11 11 11 10 10 9 9 8 9 9 9 10 10 11 12 12 13
22 21 19 20 21 18 19 20 19 17 17 18 17 16 15 14 14 14 14 14 14 13 13 13 11 11 11 10 10 10 9 9 9 9 8 8 9 9 10 10 11 12 12
20 22 21 19 20 18 18 14 14 15 15 16 15 15 14 13 13 13 13 13 13 12 12 11 10 10 9 9 9 9 9 9 9 9 9 9 9 8 9 10 10 11 12
20 20 21 20 18 17 16 15 13 13 14 14 13 13 13 12 12 12 13 13 12 11 11 10 9 8 8 8 8 8 8 8 9 9 9 9 9 8 8 9 9 10 11
19 20 21 19 18 16 16 16 15 14 12 11 12 12 12 11 11 11 11 11 10 10 9 8 8 8 8 8 8 7 8 8 8 9 9 9 9 9 8 8 8 9 9
18 19 19 20 19 18 16 15 14 13 12 12 11 11 11 11 11 10 10 10 9 8 8 8 8 8 8 7 7 7 7 7 8 8 9 9 9 9 9 8 8 8 9
19 20 20 18 17 16 15 14 13 13 12 11 11 11 11 10 10 9 9 9 8 8 8 8 8 8 7 7 7 7 7 7 7 8 8 9 9 10 9 9 9 8 8
19 18 19 18 17 16 15 14 14 13 12 11 11 11 11 10 9 9 9 9 8 8 8 8 8 8 7 7 6 6 6 6 6 7 8 8 9 10 10 10 9 9 9
19 18 18 17 16 15 15 14 13 13 12 11 11 10 10 10 9 9 9 9 8 8 8 8 7 7 6 6 6 5 5 6 6 7 7 8 9 9 10 10 9 9 9
17 17 16 15 15 15 14 14 14 13 12 11 11 10 10 10 9 9 9 8 8 8 8 8 7 6 6 6 6 5 6 6 6 6 7 8 8 9 9 9 9 8 9
16 15 15 14 14 14 14 14 14 14 12 12 11 10 10 10 9 9 9 9 8 8 8 7 7 6 6 6 6 5 5 5 6 7 7 7 8 8 9 9 9 9 9
15 15 14 14 14 14 14 13 13 13 13 12 12 11 10 9 9 9 9 9 8 8 8 7 7 6 6 6 6 6 5 5 6 6 7 7 7 8 8 8 8 8 9
15 15 15 14 14 14 14 13 13 13 13 13 12 11 10 9 9 9 9 9 8 8 8 7 7 6 6 6 6 6 6 5 6 6 6 6 7 7 7 7 8 8 8

GFSGL_925_temp_003.txt.gz
Temp
24 24 25 25 24 23 23 23 22 22 21 21 21 20 20 20 20 20 20 20 20 20 20 20 20 19 19 18 17 17 17 15 12 14 15 16 16 16 16 16 15 15 14
24 24 24 25 24 23 23 23 22 22 22 21 21 20 20 20 21 21 20 20 20 20 20 19 20 19 19 18 18 17 17 16 14 13 14 14 14 15 14 14 14 14 13
23 24 24 24 24 23 23 23 22 22 21 21 21 20 21 21 21 21 21 21 20 20 20 20 20 19 19 18 18 17 17 16 15 13 13 13 12 13 14 13 13 13 14
23 23 24 24 24 23 23 22 22 22 21 21 21 21 21 21 21 21 21 21 21 20 20 20 19 19 19 19 18 18 17 16 15 14 12 13 13 14 13 13 13 13 13
22 22 23 24 24 24 23 23 23 22 22 22 21 21 21 21 21 21 21 21 21 20 20 20 19 19 18 18 18 18 17 16 14 13 12 13 12 13 13 13 12 13 13
22 22 21 24 23 23 23 23 23 23 22 22 21 21 21 21 21 21 21 21 21 20 20 20 19 18 18 18 17 17 16 15 14 13 12 12 12 12 12 13 12 12 12
21 20 22 23 23 23 24 23 23 23 22 22 21 21 21 21 21 21 21 20 20 20 19 18 18 18 18 17 18 17 16 16 15 14 13 13 12 13 12 12 12 12 12
20 20 20 21 21 23 23 23 23 22 22 22 22 22 21 21 21 21 20 20 19 19 18 18 18 18 17 17 17 16 16 16 15 14 13 12 12 13 12 11 11 11 11
20 19 20 19 23 22 22 23 23 22 22 21 22 22 21 20 21 20 19 18 19 19 18 17 16 16 16 16 15 15 15 14 14 13 12 12 13 14 14 11 11 11 12
20 21 21 21 22 21 23 24 22 21 23 21 21 22 21 21 20 20 19 18 18 18 17 16 16 16 15 14 14 13 12 12 12 12 11 12 13 14 14 11 11 11 11
20 21 22 21 21 20 20 20 20 17 18 20 22 22 21 20 20 19 18 18 17 17 15 15 15 15 14 13 13 12 11 11 11 10 10 10 11 13 11 11 10 11 11
20 20 20 21 21 21 21 20 21 18 15 19 21 20 19 19 19 18 17 16 16 15 15 15 14 14 13 12 11 11 11 11 10 9 9 9 9 10 10 11 10 11 12
20 20 19 19 20 21 22 22 23 21 15 19 18 17 18 18 16 16 15 15 14 14 14 14 14 13 12 12 12 11 11 10 9 8 8 9 9 9 11 10 11 11 12
19 19 20 20 20 20 19 20 19 17 17 18 17 17 16 15 14 14 14 14 14 14 14 14 14 12 11 11 11 11 10 9 8 8 8 9 9 9 10 10 10 10 11
19 19 19 20 20 20 18 17 16 17 17 17 18 18 16 14 14 14 14 14 14 14 13 13 11 11 11 10 10 10 10 9 9 9 9 9 8 8 8 10 10 10 11
18 19 21 19 19 20 17 14 16 16 16 16 16 16 14 14 13 13 14 14 14 13 12 11 10 10 9 8 8 9 9 9 9 9 9 9 8 8 8 9 9 9 10
19 19 17 17 18 17 14 14 12 13 14 14 14 14 14 13 13 13 13 14 13 11 11 10 9 8 8 8 8 7 7 8 8 9 9 9 8 9 8 8 8 9 9
19 19 20 20 19 17 15 14 14 13 12 11 12 12 12 12 12 11 11 11 11 10 10 9 8 8 7 7 7 7 7 8 8 8 8 9 9 8 8 7 7 8 8
18 19 19 19 18 17 14 14 14 12 12 12 12 12 12 11 11 11 11 10 10 9 8 8 8 7 7 7 7 7 7 7 7 7 8 8 9 8 8 8 8 8 8
19 20 20 19 17 17 16 14 12 12 12 11 12 12 11 11 10 10 10 9 9 8 8 8 8 7 7 7 7 6 6 6 7 7 8 8 9 9 8 8 8 8 8
18 18 18 17 16 16 15 15 14 12 11 11 12 12 12 11 10 10 9 9 8 8 8 8 8 7 7 7 6 6 5 6 6 7 7 8 8 9 9 9 9 8 9
19 19 18 17 16 15 15 15 14 14 12 12 11 11 11 11 10 10 9 9 8 8 8 8 7 7 6 6 6 5 6 6 7 7 7 8 8 9 9 9 9 8 8
17 17 16 16 15 14 14 13 13 12 12 11 11 10 11 10 10 9 9 9 8 8 8 7 7 6 6 6 6 5 6 6 6 7 7 7 8 9 9 9 8 8 8
16 15 15 15 14 14 13 13 13 12 12 11 11 11 11 10 10 10 9 8 8 8 8 7 7 6 6 6 6 6 6 6 6 6 7 7 7 8 8 8 8 8 8
15 14 14 13 13 13 13 13 13 13 13 12 12 11 11 10 10 10 9 9 8 8 8 7 7 6 6 6 6 5 5 6 6 6 6 7 7 7 8 8 8 8 8
14 14 14 14 14 13 13 12 13 13 13 13 13 12 11 10 10 10 9 8 8 8 8 7 7 6 6 6 6 5 5 5 6 6 6 6 7 7 7 7 7 7 7

GFSGL_925_temp_006.txt.gz
Temp
25 25 24 24 23 24 24 23 23 22 22 21 21 20 20 20 20 20 20 20 20 20 20 19 19 19 19 18 17 17 17 15 13 15 14 16 16 16 17 17 16 16 16
23 23 23 24 24 24 23 23 22 22 22 21 21 20 20 20 20 20 20 20 20 20 20 19 19 19 18 18 17 17 17 16 14 14 15 14 15 16 16 16 16 16 15
22 23 22 23 24 24 24 23 23 22 22 21 21 20 20 20 20 20 20 20 20 20 20 20 19 19 19 19 18 18 17 17 15 13 14 14 13 14 14 15 14 15 14
22 22 21 23 24 24 24 23 23 22 22 21 21 20 20 20 20 20 21 21 21 21 20 20 20 19 19 18 18 18 17 16 15 13 13 14 13 14 13 13 13 13 13
22 21 22 23 23 23 23 23 22 22 22 21 21 21 20 21 21 21 21 21 21 21 21 20 20 19 19 18 17 17 17 16 15 13 13 14 14 14 14 13 13 13 13
22 21 21 21 21 23 22 22 22 22 22 21 21 21 21 21 21 21 21 21 21 21 20 20 20 19 19 18 17 17 17 16 15 13 14 13 13 13 13 12 13 13 14
21 20 20 19 19 19 18 18 21 22 22 21 21 21 21 21 21 21 21 20 20 20 20 19 19 19 18 18 18 17 16 15 14 13 12 12 12 13 12 12 12 12 12
21 20 19 19 18 21 20 19 20 22 22 21 21 21 21 21 21 20 20 20 19 19 19 18 17 18 17 16 16 16 16 15 15 14 13 13 12 11 11 11 11 11 11
20 20 19 19 18 19 20 22 19 20 20 20 20 20 21 21 22 21 20 19 19 19 18 17 17 16 16 16 15 14 14 15 14 14 13 12 12 13 12 10 11 11 11
20 19 20 20 18 19 19 18 19 19 19 18 18 17 17 16 20 19 19 19 19 18 18 16 16 15 15 15 14 13 13 13 13 13 12 11 10 11 13 11 10 11 11
19 19 18 19 19 18 18 18 19 19 19 18 19 21 21 18 16 17 18 18 18 17 16 16 15 15 14 14 13 12 12 11 11 10 9 9 9 9 10 12 12 10 10
19 18 18 18 18 18 19 18 19 20 20 20 21 21 21 19 15 17 18 18 17 16 16 15 15 14 13 12 12 12 11 10 10 10 9 9 8 9 10 11 12 9 10
18 18 18 19 19 18 18 17 18 20 19 19 18 18 17 15 15 17 18 17 16 15 15 14 14 14 13 11 11 11 10 10 9 8 8 8 9 10 10 11 11 10 10
17 17 17 17 17 17 18 18 20 21 22 20 17 16 16 16 17 16 15 15 14 14 14 14 14 13 11 11 11 10 10 10 9 8 9 9 10 9 9 10 8 9 10
18 18 18 18 18 18 18 18 19 19 19 18 16 17 16 16 16 15 14 14 14 13 13 12 11 10 10 10 10 10 9 9 9 9 9 8 9 8 8 9 8 9 9
18 18 18 17 16 16 17 16 17 17 16 16 16 16 15 15 15 14 14 14 13 13 12 10 9 9 9 9 8 8 9 9 8 8 9 8 8 7 7 8 8 8 9
19 18 18 18 18 16 16 15 13 14 15 15 15 15 15 15 15 14 13 13 13 11 10 10 9 9 8 8 8 7 7 7 8 8 8 8 8 8 7 7 7 7 8
19 20 20 18 17 16 15 14 14 13 12 12 13 13 13 13 12 12 11 11 11 10 10 9 9 8 8 7 7 7 7 7 7 8 8 8 8 7 6 7 7 7 7
20 19 18 17 16 15 14 14 13 13 12 12 11 11 11 11 11 11 10 10 10 9 9 8 8 7 7 7 7 7 7 6 6 7 8 8 8 7 7 7 8 8 8
18 17 18 18 17 15 14 13 13 12 12 11 11 11 10 10 10 10 10 10 9 8 8 8 7 7 7 7 7 7 6 6 7 7 7 8 8 8 7 7 7 7 7
17 18 18 17 16 16 15 14 13 12 11 10 12 12 12 11 11 10 10 9 9 8 8 8 8 7 7 7 6 6 6 6 6 6 7 7 8 8 8 7 7 8 8
18 18 17 17 16 15 14 13 13 12 12 11 11 11 11 11 11 11 9 9 9 8 8 8 7 7 6 6 6 6 6 6 6 6 7 7 8 8 8 7 7 8 8
17 16 16 16 15 14 13 13 13 13 12 12 12 12 12 12 12 11 9 9 9 8 8 8 7 7 6 6 6 6 6 6 6 6 6 7 7 8 8 7 7 7 7
15 15 15 14 14 14 14 13 14 13 13 12 12 12 11 12 11 11 9 9 8 8 8 7 7 7 6 6 6 5 6 6 6 6 6 6 7 7 8 7 7 7 7
14 14 14 14 13 13 12 12 12 12 12 12 12 12 11 11 11 10 10 9 9 8 8 7 7 6 6 6 6 6 5 6 6 6 6 6 6 7 7 7 7 6 7
14 14 14 14 14 13 13 13 12 13 13 12 12 12 11 11 11 10 10 10 9 8 8 7 7 6 6 6 6 6 6 5 6 6 6 6 6 6 7 7 7 6 6

GFSGL_925_temp_009.txt.gz
Temp
24 23 23 22 22 23 23 23 24 22 22 22 21 21 20 20 20 19 19 19 19 19 19 18 19 19 19 19 19 18 18 17 18 20 19 17 16 16 16 16 16 16 17
25 23 23 22 25 25 25 22 23 24 22 22 21 21 20 19 19 19 19 19 19 19 19 19 19 19 18 18 19 18 18 18 17 18 18 18 18 17 16 15 16 16 16
25 24 23 22 23 24 23 24 24 24 22 22 21 21 20 19 19 19 19 19 19 19 19 19 19 18 18 19 18 18 18 17 17 15 17 18 18 17 17 16 16 16 16
26 24 22 22 23 24 22 24 23 23 23 21 21 21 20 19 19 19 19 19 19 19 19 19 19 20 18 18 18 17 17 17 18 17 17 18 18 18 17 17 18 18 17
25 24 23 22 21 21 19 19 20 20 18 20 21 21 21 20 20 20 19 19 19 19 19 20 19 19 19 19 18 18 17 17 18 18 18 19 19 18 18 17 17 17 17
25 24 23 22 21 20 18 17 20 18 19 18 18 20 20 20 20 21 20 20 19 19 19 19 18 19 19 19 18 18 17 16 16 16 17 17 17 16 17 16 16 16 17
23 23 22 21 20 19 18 17 19 19 20 19 17 20 21 20 21 21 21 20 19 19 19 19 18 18 18 17 17 17 16 16 15 14 14 15 15 15 14 14 14 12 12
23 23 22 21 20 19 18 18 18 18 20 18 19 21 20 20 20 21 20 19 18 18 18 18 17 18 16 16 15 16 16 15 14 14 14 14 13 13 12 12 11 11 11
23 22 22 21 20 19 18 17 18 17 17 17 18 17 18 18 20 21 20 19 17 18 18 18 17 17 16 16 15 15 15 15 14 13 13 13 13 13 11 10 11 12 13
23 22 21 20 20 19 18 17 17 17 16 17 18 19 21 21 21 20 21 20 18 16 16 17 17 16 16 15 14 14 14 15 13 13 13 13 12 12 11 11 11 11 12
23 21 20 19 19 19 18 17 17 17 18 18 18 19 19 21 19 21 20 19 18 16 17 17 15 16 15 14 14 13 13 12 12 12 13 13 13 13 14 13 12 12 11
21 20 19 19 18 17 17 18 17 18 17 17 16 18 20 20 20 20 19 18 17 16 17 17 14 15 14 13 13 12 12 11 12 13 13 14 13 13 13 12 11 11 11
20 19 18 18 17 18 18 16 16 15 17 17 17 19 19 20 18 18 17 17 17 14 15 14 15 14 14 13 12 11 11 12 12 12 13 13 12 12 11 12 12 12 11
19 18 18 18 17 17 17 17 16 16 17 17 18 17 18 16 16 15 15 15 14 13 14 13 14 14 14 12 11 11 10 11 11 11 11 11 12 12 12 12 12 11 10
18 18 18 18 18 17 16 16 17 16 17 17 18 18 19 17 16 15 14 14 15 14 14 13 13 13 13 12 11 11 11 11 11 11 11 11 12 12 12 12 12 11 10
18 18 18 18 18 18 16 14 16 16 17 16 16 17 16 17 16 16 15 15 14 14 13 14 14 14 13 13 12 12 11 10 10 10 11 11 11 11 11 11 12 12 10
19 18 18 18 19 17 16 16 17 12 14 15 16 16 16 17 15 14 14 13 13 13 13 14 14 13 12 12 11 11 11 10 8 10 10 10 10 11 11 12 11 10 9
18 17 18 19 18 15 15 15 16 16 17 14 13 15 14 14 13 13 13 12 12 12 13 13 13 12 11 11 10 10 10 10 10 10 10 10 10 10 11 11 11 9 9
18 19 19 19 18 17 15 15 16 15 17 15 12 12 12 12 12 12 12 13 13 13 12 12 11 11 10 10 9 9 8 9 8 9 10 10 10 10 11 11 12 11 10
18 19 18 17 15 14 14 15 15 15 15 15 15 14 11 11 12 12 12 12 12 12 11 11 10 9 9 9 8 8 9 9 9 9 9 9 10 10 11 11 12 12 12
17 17 17 17 17 17 17 17 16 15 16 16 16 14 12 13 14 14 13 12 12 11 10 10 9 9 8 8 7 8 8 9 8 8 9 9 9 10 10 11 12 12 12
17 17 18 18 17 16 16 15 15 16 16 16 15 12 12 12 14 13 12 11 11 10 10 9 9 9 8 7 7 8 8 8 8 8 8 9 9 10 10 11 11 12 12
16 17 17 16 16 15 15 15 16 16 16 16 15 14 12 13 13 13 12 11 10 10 9 8 8 8 7 6 6 6 7 7 7 6 7 8 9 9 10 11 11 11 11
17 17 17 16 16 17 16 16 16 15 16 15 15 14 14 12 12 11 12 11 10 9 8 8 8 8 6 6 6 6 6 5 5 6 6 7 9 9 9 10 11 11 11
16 16 16 16 16 16 15 16 16 16 15 15 14 12 12 12 13 12 12 11 10 9 8 8 7 7 6 6 6 6 5 6 6 6 6 7 8 8 9 10 10 11 10
16 16 15 15 15 15 15 16 16 15 15 15 15 14 14 14 13 13 11 11 10 9 9 8 7 7 6 6 5 6 6 6 5 6 6 7 8 9 9 9 9 10 10

GFSGL_925_temp_012.txt.gz
Temp
27 26 26 26 25 25 25 24 23 23 23 22 22 22 21 21 20 20 21 21 21 21 21 21 21 20 21 22 22 22 22 22 22 22 22 22 21 20 19 19 19 19 19
28 27 26 26 26 25 24 24 23 22 22 21 21 21 21 21 21 20 21 22 21 21 21 21 21 22 21 21 21 21 22 21 21 21 20 20 20 20 20 19 19 19 19
29 28 27 27 26 26 24 24 22 22 21 21 21 20 20 21 21 21 21 21 21 21 21 21 21 21 21 21 21 21 22 21 21 21 20 20 21 20 21 20 20 20 19
31 29 28 27 26 26 24 23 21 22 21 21 20 21 20 20 20 21 21 21 21 21 21 21 21 21 21 21 20 20 20 19 20 20 21 21 21 21 21 20 21 21 21
31 30 29 27 26 25 24 22 21 20 21 21 21 22 20 19 20 20 20 21 21 21 21 21 21 21 20 20 20 21 20 20 21 21 21 21 21 20 20 20 20 20 20
30 30 29 27 25 24 24 21 19 19 21 21 22 23 21 19 21 20 20 21 21 21 21 21 21 20 19 19 19 18 18 17 18 19 19 20 18 19 19 19 18 18 19
28 28 28 27 25 23 23 21 19 19 18 20 21 23 20 18 19 20 20 20 21 21 21 20 20 20 20 19 18 17 17 17 17 16 17 17 17 18 17 16 16 16 16
27 27 26 25 25 23 21 20 20 19 17 17 17 19 18 18 18 20 20 20 20 20 20 20 19 19 19 19 18 18 18 18 17 16 16 16 16 15 14 14 14 14 13
27 26 26 25 24 23 20 19 19 19 17 18 18 18 18 18 19 20 20 20 20 20 19 18 18 18 18 17 16 17 17 18 18 16 15 14 14 14 13 13 14 15 14
27 26 26 25 24 23 21 20 19 18 17 18 19 19 19 19 20 20 19 19 20 19 19 18 19 17 17 16 15 16 17 18 17 16 15 15 16 15 15 14 13 13 15
28 26 25 24 23 22 21 19 18 18 18 19 20 18 18 19 19 19 20 20 18 19 20 18 18 17 16 16 15 16 16 14 15 15 17 17 17 17 17 17 16 15 15
26 26 24 22 22 20 19 18 18 18 19 19 18 19 18 20 18 20 20 21 18 18 18 20 18 17 16 15 15 14 14 13 15 17 17 17 17 17 17 16 14 14 14
24 24 21 20 20 19 18 17 17 18 19 19 19 19 19 19 18 17 19 19 17 17 19 18 16 15 14 14 14 13 12 15 16 16 17 17 16 15 15 15 16 15 15
21 20 19 18 18 18 17 17 18 18 19 21 21 21 19 20 18 17 16 16 16 16 16 15 15 14 14 15 13 12 14 15 15 15 15 15 15 15 16 16 15 15 16
20 20 20 19 19 19 18 19 19 19 19 21 19 18 18 19 19 20 19 19 19 18 17 17 17 18 18 18 17 15 15 15 15 15 15 15 15 15 15 15 15 15 15
21 22 23 22 21 20 19 17 17 18 18 18 17 18 19 19 19 18 17 17 16 16 16 18 19 19 18 18 17 17 16 15 14 14 14 14 14 15 14 14 15 15 14
23 22 22 23 23 21 21 21 20 15 16 16 17 17 16 15 16 15 15 15 14 15 17 19 18 18 17 17 16 16 16 15 12 13 14 14 14 14 14 14 15 15 15
22 21 22 23 23 22 21 22 22 21 20 16 14 15 15 15 15 14 14 14 14 15 17 18 18 17 16 15 15 15 14 14 14 14 13 14 14 14 14 14 15 15 15
21 22 23 22 22 22 21 21 22 22 22 19 12 11 12 13 13 13 14 16 18 18 18 17 16 16 15 14 14 13 12 13 12 12 13 14 14 14 14 14 15 14 14
21 21 22 22 21 21 21 21 21 21 21 20 18 17 13 12 14 15 15 16 17 17 16 16 15 14 14 13 12 12 12 13 13 13 13 13 13 13 14 14 15 15 15
23 20 21 22 22 22 22 22 22 22 22 21 21 19 17 17 18 18 17 16 16 16 15 14 14 13 12 12 11 12 13 13 13 13 13 13 13 13 14 14 15 15 16
22 22 22 23 22 21 21 21 21 21 21 21 20 15 15 15 18 18 17 16 15 14 14 13 13 13 13 12 11 12 12 12 12 12 12 12 13 13 13 14 15 15 15
22 22 22 22 22 20 20 21 21 21 21 20 20 17 14 16 17 17 16 16 15 14 13 12 12 12 11 10 10 11 12 12 11 10 11 11 12 12 13 14 14 14 14
21 22 22 21 21 21 21 21 21 19 20 19 19 18 18 17 17 16 16 15 14 14 13 12 12 12 11 10 10 10 10 10 9 10 9 11 12 12 13 13 14 14 14
21 21 21 20 20 20 21 20 20 20 19 19 19 18 18 17 16 15 15 15 14 13 13 12 12 11 10 9 10 10 8 7 7 7 8 10 11 11 12 13 12 14 13
20 20 19 19 19 19 19 20 20 19 19 19 19 18 17 16 16 17 16 15 15 14 13 12 12 10 10 9 9 8 7 7 6 7 7 10 11 12 11 12 12 13 13

GFSGL_925_temp_015.txt.gz
Temp
28 28 27 27 26 26 26 26 26 26 26 26 24 23 23 23 22 21 22 22 22 22 21 22 22 22 22 23 24 24 24 24 24 24 23 23 21 21 21 21 20 20 20
29 28 27 27 27 27 26 26 25 25 25 24 23 23 23 22 22 21 21 22 22 22 22 21 22 22 22 21 22 22 22 23 22 22 22 22 22 21 21 21 21 21 21
30 29 28 27 27 27 26 26 25 24 24 24 23 22 22 22 21 21 21 21 21 22 22 22 22 22 22 22 22 22 22 23 22 22 22 22 21 21 21 21 21 20 21
32 31 30 28 28 27 27 26 25 24 23 23 22 22 22 21 21 21 21 21 21 21 21 22 22 22 22 21 21 21 21 21 22 22 22 21 21 21 21 20 20 20 20
33 32 31 29 28 28 27 27 25 24 23 22 21 21 21 21 21 21 22 21 21 21 21 22 22 22 22 21 21 22 21 21 22 22 22 22 22 21 20 20 20 19 20
33 33 32 30 28 28 27 26 25 23 22 22 21 20 21 19 20 20 21 20 21 21 21 22 22 22 22 21 21 20 20 18 19 19 20 20 19 19 20 19 19 19 19
33 33 32 30 28 27 27 26 24 23 22 21 20 20 19 19 19 20 21 20 21 21 21 21 22 23 22 21 20 19 18 18 18 18 17 17 18 18 17 17 17 17 17
31 31 31 30 29 27 26 25 23 22 21 21 20 19 19 19 18 20 20 20 20 21 21 21 20 20 20 19 19 18 18 19 19 17 17 17 17 17 15 15 15 15 15
30 29 29 29 28 27 25 25 22 20 20 20 19 19 19 19 19 19 19 19 19 20 20 20 19 19 19 19 19 18 18 19 19 19 18 17 16 16 16 15 16 17 17
30 29 28 28 27 26 25 24 22 21 20 19 18 19 18 20 20 19 19 19 19 19 20 19 19 19 19 19 18 17 17 18 19 19 17 17 17 17 17 16 16 17 18
30 29 28 27 26 26 24 22 21 21 20 19 19 19 20 20 20 19 19 19 19 19 20 19 19 19 18 18 17 16 17 17 17 17 17 17 18 19 19 19 16 16 17
29 28 27 26 26 25 22 21 20 19 18 18 18 19 20 19 19 19 20 20 19 20 21 19 19 19 18 17 17 16 15 15 16 17 18 18 19 19 19 18 16 16 16
28 27 26 24 23 21 21 20 19 18 18 18 19 21 19 19 18 19 19 20 19 18 19 20 18 17 16 16 16 15 15 14 16 18 19 18 18 18 17 16 17 17 17
26 23 22 21 20 20 20 19 19 18 19 19 20 20 20 21 19 18 18 19 18 16 16 16 16 16 16 16 16 15 14 15 17 17 17 17 17 17 17 17 17 17 17
22 20 20 20 20 18 17 18 18 18 18 19 20 21 22 20 20 20 19 18 19 19 19 19 18 18 18 18 17 16 16 16 17 17 17 17 17 17 17 16 16 16 17
21 21 22 21 19 19 17 17 18 18 18 19 20 20 19 19 19 19 18 18 18 18 18 20 21 21 20 20 20 19 18 17 17 17 16 16 16 16 16 16 16 16 16
26 25 25 25 23 23 23 22 21 17 18 18 19 19 18 18 18 17 17 17 17 17 18 20 21 21 20 19 19 19 18 18 15 15 16 16 16 16 16 16 16 16 16
24 25 26 26 25 24 24 24 23 22 21 18 15 16 16 17 17 17 17 16 16 16 18 20 20 20 19 19 18 18 17 17 16 16 15 15 16 16 16 16 16 16 16
24 25 26 26 25 25 24 24 25 25 24 20 14 13 14 15 15 15 15 16 20 21 21 20 19 19 18 18 17 16 15 15 14 14 14 15 15 15 16 16 16 16 16
24 24 25 25 24 24 24 24 24 25 22 20 19 18 14 13 14 15 15 17 19 20 20 18 18 17 16 16 15 15 14 15 15 15 15 15 15 15 16 16 16 17 17
24 23 23 25 24 25 24 25 25 25 25 23 22 20 17 16 19 19 19 19 18 19 18 17 17 16 15 14 14 14 14 15 15 15 15 15 15 15 15 16 16 17 17
25 24 24 25 25 24 24 24 24 24 24 24 19 18 18 18 20 19 19 19 18 17 17 16 16 16 16 15 14 14 14 15 15 14 14 14 14 15 15 15 16 16 16
25 25 25 25 23 22 23 24 24 24 24 23 19 17 18 19 20 19 18 18 18 17 16 15 15 15 15 14 13 13 14 15 14 13 13 13 14 14 14 15 16 16 16
24 24 23 23 23 23 23 23 22 22 22 21 18 19 18 18 19 19 18 17 17 16 16 15 15 15 14 13 13 13 13 12 11 12 11 12 13 14 14 14 15 15 16
23 23 22 22 22 23 23 23 23 22 20 20 19 19 18 18 19 18 17 17 16 16 16 15 14 14 13 12 13 12 11 10 9 9 9 11 12 13 14 14 14 15 15
22 22 22 22 22 22 22 22 23 21 20 19 20 19 18 18 18 18 16 16 16 17 16 15 14 13 13 12 11 10 10 9 8 8 8 9 12 13 12 13 14 15 15

GFSGL_925_temp_021.txt.gz
Temp
25 25 25 25 25 25 26 26 27 27 27 27 25 24 24 23 23 22 22 22 22 22 22 22 22 22 22 22 22 22 22 22 20 22 22 22 21 22 22 21 21 21 21
25 25 25 25 25 25 25 26 27 27 27 27 26 24 24 23 23 22 22 22 22 22 22 22 22 22 22 22 22 22 22 22 21 20 21 22 22 22 22 21 21 21 21
25 25 25 25 24 24 25 25 26 27 27 26 26 25 24 23 23 23 22 22 22 22 22 22 22 22 22 22 22 22 21 21 21 21 21 21 21 21 21 21 21 20 20
26 25 25 25 25 25 24 24 25 26 26 26 26 25 24 24 23 23 22 22 22 21 21 21 21 21 21 21 21 21 21 21 21 20 20 20 20 20 20 19 19 19 19
27 26 26 25 25 25 25 24 24 25 25 26 25 24 23 23 23 23 23 22 22 22 21 21 21 22 21 21 21 21 21 20 20 20 19 19 19 19 19 18 18 18 18
28 27 26 26 25 25 25 24 24 24 24 25 24 24 23 23 23 23 22 22 21 21 21 21 21 21 21 21 20 20 20 18 17 19 18 18 18 18 18 18 17 16 15
29 27 27 26 26 25 25 25 25 24 24 24 24 24 23 23 22 22 21 21 21 21 21 20 21 21 21 21 20 19 19 18 18 18 19 18 18 19 18 17 17 16 16
29 28 27 26 26 26 25 25 25 25 24 24 23 23 23 22 22 21 21 20 20 20 20 20 20 20 21 20 19 19 19 19 19 19 18 18 18 18 18 17 17 16 16
29 28 27 27 26 26 25 25 25 25 24 23 23 22 22 22 21 20 20 20 20 20 20 20 20 20 21 20 20 20 20 20 19 18 18 18 18 18 17 16 16 15 14
29 29 28 27 27 26 25 25 25 25 24 24 23 22 22 21 20 20 19 19 19 19 20 20 20 20 21 20 20 20 19 19 18 17 17 17 17 17 17 17 17 15 14
30 29 28 28 27 26 25 25 25 25 24 23 22 21 21 21 20 19 18 18 19 19 18 19 19 20 20 19 19 19 19 18 17 17 17 17 17 17 17 17 17 17 16
30 29 29 28 26 26 25 25 26 23 22 21 20 19 19 20 19 19 18 18 19 18 18 19 19 20 20 19 19 19 18 17 16 17 16 16 16 17 17 17 17 17 16
29 28 28 27 25 25 25 22 21 22 20 19 19 19 19 19 19 19 19 19 18 18 18 19 19 19 19 19 19 18 17 17 16 16 16 16 16 17 17 16 16 16 16
26 25 24 24 23 22 21 21 20 19 19 19 18 18 19 19 19 19 19 19 18 17 18 18 18 18 19 18 17 17 17 17 16 16 16 16 16 16 16 16 16 16 16
22 21 21 20 20 20 20 19 20 20 20 19 19 19 19 19 19 19 19 18 18 18 18 17 16 16 17 16 16 16 16 16 16 16 15 15 16 16 16 16 16 16 15
20 20 19 19 18 18 18 17 19 19 19 19 19 20 20 20 19 19 19 19 19 18 17 16 16 17 17 17 17 17 17 16 17 16 15 16 16 15 15 15 15 15 15
19 19 19 19 18 17 17 17 15 17 18 19 19 20 20 20 19 19 19 18 18 18 17 17 17 18 18 19 18 17 17 17 16 15 16 15 15 15 15 15 15 15 15
20 20 20 19 19 18 18 18 17 16 16 17 18 19 19 19 19 19 18 17 17 17 18 18 19 19 18 18 17 17 16 16 15 15 15 15 15 15 15 15 15 15 15
20 20 20 20 20 20 19 18 18 18 18 18 17 17 18 18 18 17 16 17 17 18 19 18 18 17 17 17 16 16 15 15 15 15 15 15 14 14 15 15 15 15 15
22 22 22 21 21 20 20 20 18 18 17 17 16 17 16 15 16 16 16 17 18 18 19 18 17 17 17 16 16 15 15 15 15 15 15 14 14 14 14 14 14 15 15
23 23 23 23 22 23 23 22 21 20 18 17 17 17 17 17 17 16 17 17 18 18 18 17 17 17 16 16 15 15 14 14 15 15 14 14 14 14 14 14 14 14 14
24 24 24 24 24 24 24 25 21 20 18 18 18 18 18 16 17 17 18 18 18 18 18 17 17 16 16 15 14 14 14 14 14 13 14 13 13 13 13 14 14 14 14
24 24 23 24 24 24 23 22 22 20 19 19 19 18 16 17 18 18 18 18 18 18 17 17 16 16 15 15 14 14 13 13 13 13 13 13 12 12 12 13 13 13 14
22 23 22 22 21 20 21 20 21 21 20 20 20 18 18 19 19 19 19 18 18 18 17 17 16 15 15 14 13 13 13 13 13 12 12 12 12 12 12 12 13 13 14
21 20 20 20 20 20 20 20 20 20 20 19 19 18 19 19 18 19 18 18 18 18 17 17 16 15 15 14 14 13 13 12 12 12 12 12 12 11 11 12 13 13 13
20 20 20 20 19 20 21 20 20 20 19 20 19 19 19 19 19 18 18 18 18 17 17 16 16 16 15 14 13 13 12 12 11 11 11 11 11 11 11 12 12 12 13

GFSGL_925_temp_024.txt.gz
Temp
24 24 24 25 25 25 26 26 26 26 26 25 25 25 24 24 23 23 23 22 22 22 22 22 22 22 22 22 22 22 22 21 19 21 21 21 21 22 21 21 21 21 21
24 24 24 24 24 24 25 26 26 26 26 26 26 25 24 24 23 23 23 22 22 22 22 21 21 22 22 21 22 22 21 21 21 20 21 21 21 21 21 21 21 21 21
25 24 24 24 24 24 25 25 25 26 26 26 26 25 24 24 23 23 23 23 22 22 22 21 22 21 21 21 21 21 21 21 20 20 20 20 20 21 20 20 20 20 19
25 25 24 24 24 24 25 25 24 25 26 26 26 25 25 24 24 23 23 23 22 22 22 21 21 21 21 21 21 21 21 20 20 19 18 19 19 20 20 19 19 19 19
25 25 24 24 24 24 24 24 24 24 25 25 25 25 24 24 24 23 23 23 22 22 22 22 21 21 21 21 21 21 20 20 19 19 18 18 18 18 18 18 18 18 18
25 25 25 24 24 24 24 23 23 23 24 24 24 24 24 23 24 24 24 22 21 22 21 21 21 21 21 21 21 20 20 20 19 18 17 16 17 17 18 17 17 16 15
26 25 25 24 24 24 24 23 23 23 23 23 23 24 23 24 25 24 24 22 21 21 22 21 21 21 21 21 20 20 20 20 19 18 18 17 17 18 18 17 17 17 16
26 26 25 24 24 24 23 23 23 23 23 23 23 24 24 24 24 24 23 21 20 21 21 21 21 21 20 20 20 20 20 19 19 19 19 18 18 18 17 17 16 16 16
27 26 25 25 24 24 23 23 23 23 22 22 23 23 23 23 24 24 22 20 20 20 20 20 21 21 20 20 20 20 20 19 19 18 18 18 17 17 17 16 16 15 14
28 27 26 25 25 24 24 24 23 23 23 23 22 22 23 23 23 22 21 20 19 19 19 20 20 20 20 19 19 19 19 19 18 18 17 17 17 17 17 16 16 15 14
28 28 27 26 25 25 24 24 24 23 23 22 22 22 22 23 23 21 20 19 19 19 19 19 19 19 19 19 19 19 19 19 18 18 17 17 17 17 16 17 17 16 16
28 28 26 25 25 25 24 24 24 23 22 21 21 20 21 21 20 20 19 19 19 19 19 19 19 19 19 19 19 19 19 18 17 17 17 17 17 16 17 16 16 16 16
28 27 26 25 25 25 24 23 22 22 21 20 20 19 19 19 20 19 19 19 18 18 19 19 18 18 18 19 19 19 18 16 16 16 16 17 16 16 16 16 16 16 16
26 26 25 25 24 23 23 22 21 21 20 19 19 19 19 19 19 18 18 18 18 17 17 17 18 18 18 18 18 18 16 16 16 17 17 16 16 15 16 16 15 15 15
23 23 23 22 22 20 20 20 20 20 20 19 19 19 18 18 18 19 19 18 18 18 16 16 17 17 17 17 17 17 17 17 16 16 15 15 15 15 15 15 15 15 14
22 20 19 18 17 16 15 17 18 20 20 22 22 22 20 20 20 19 19 18 18 18 16 16 17 17 17 17 18 17 16 16 16 15 15 15 15 15 15 15 15 14 14
20 18 17 17 17 17 16 16 14 17 19 20 20 20 20 20 19 19 18 18 18 17 17 17 17 17 17 17 16 16 16 16 16 15 15 15 15 15 14 14 14 14 14
18 18 18 18 18 18 17 16 17 17 16 17 19 20 20 20 19 18 18 17 17 16 17 17 17 17 17 17 17 17 17 17 16 14 15 15 15 14 14 14 14 14 14
18 18 18 18 17 17 16 16 16 16 15 14 15 18 18 18 18 18 18 18 18 17 17 17 17 17 17 17 17 16 16 15 15 15 15 14 14 14 14 14 14 14 13
20 19 18 18 18 17 17 17 16 16 16 16 16 17 16 18 17 17 18 17 17 18 17 17 17 17 17 16 16 15 15 14 14 14 14 14 14 14 13 14 13 13 13
21 20 21 20 19 18 18 17 17 18 17 16 16 17 19 19 18 18 17 17 17 18 17 17 17 16 16 16 15 15 15 14 14 14 14 14 13 13 13 13 13 13 13
21 21 21 21 20 20 19 20 18 18 17 16 16 17 17 18 18 17 17 17 17 17 18 18 17 17 16 16 15 15 14 14 14 14 13 13 13 13 13 12 12 13 13
22 21 20 20 20 20 20 20 19 18 18 17 17 17 16 16 17 17 18 18 18 17 17 17 17 16 16 15 15 14 14 14 13 13 13 13 13 12 12 12 12 12 13
22 21 21 20 20 19 20 20 19 19 18 18 18 18 17 17 18 18 19 18 18 17 17 17 17 17 16 15 14 14 14 13 13 13 13 13 12 12 12 12 12 12 12
21 20 19 19 19 20 20 20 19 19 18 18 18 18 18 17 19 18 19 18 17 17 17 17 17 17 16 15 15 14 13 13 12 12 12 12 12 12 11 11 11 11 12
20 19 19 19 19 18 18 18 18 18 19 19 19 19 18 18 18 18 19 19 18 17 17 17 16 16 16 15 15 14 13 12 12 12 11 11 11 11 11 11 11 11 12

GFSGL_925_temp_027.txt.gz
Temp
24 24 24 24 24 24 25 26 26 25 25 24 25 25 24 23 23 23 23 23 22 22 22 21 21 21 21 21 21 21 21 21 19 21 21 21 21 22 21 21 21 21 20
25 24 24 24 23 24 25 26 26 26 25 25 25 25 24 24 23 23 23 23 22 22 22 22 22 21 21 21 21 21 21 21 20 20 20 20 20 20 20 20 20 20 20
25 24 24 24 23 23 25 24 25 25 25 25 25 24 24 24 24 23 23 23 22 22 22 22 22 21 21 21 21 21 21 20 20 19 19 19 19 19 19 19 19 20 20
25 24 24 24 23 23 24 24 24 25 25 25 25 25 24 24 24 24 23 23 23 22 22 22 22 21 21 21 21 21 20 20 19 19 19 19 19 19 19 19 18 18 18
25 24 24 24 24 23 24 24 24 23 24 25 25 24 25 25 25 24 23 23 23 22 22 22 22 22 22 21 21 21 20 19 19 19 18 18 19 19 18 17 17 18 18
25 24 24 24 24 23 23 23 23 23 23 23 24 24 24 24 25 25 24 23 23 22 22 21 21 21 21 21 21 20 20 20 20 19 18 18 18 17 18 16 16 16 15
25 25 24 24 24 23 23 23 22 22 22 23 23 23 23 24 25 25 25 23 23 22 21 21 21 21 21 21 21 20 20 20 20 20 19 18 19 18 17 16 16 15 15
25 25 24 24 24 23 23 23 22 22 22 22 22 23 23 24 25 25 24 22 21 20 21 21 21 21 21 21 21 20 20 20 20 20 19 20 19 18 16 16 15 15 15
25 25 24 24 24 23 23 23 22 22 22 21 21 21 23 23 24 24 23 21 19 19 20 20 20 20 20 20 20 20 19 19 19 19 19 18 18 17 16 16 15 14 14
25 25 25 24 24 23 23 23 23 22 22 22 21 22 23 23 24 24 23 20 20 20 20 20 20 20 20 20 19 19 19 19 19 18 18 18 17 17 16 16 16 15 13
26 26 25 25 24 24 23 23 22 22 22 22 21 21 22 23 24 24 22 21 20 19 19 19 19 19 19 19 19 19 19 19 18 18 17 17 17 17 17 16 16 16 15
27 26 25 25 24 24 23 23 22 22 22 22 22 21 21 22 23 22 20 20 20 19 19 19 19 19 19 19 18 19 18 18 18 17 16 16 17 16 16 16 16 16 16
27 27 26 25 24 24 23 22 22 22 22 22 21 20 20 21 21 21 19 19 19 19 19 19 19 18 18 18 18 18 18 18 17 16 16 17 17 16 16 16 16 16 15
26 26 26 25 24 24 23 22 22 22 22 21 20 19 19 19 19 19 19 19 18 18 18 18 18 18 18 18 18 18 18 17 16 16 16 16 15 15 15 15 15 15 15
26 26 26 24 24 23 21 22 22 22 22 20 20 19 18 17 18 19 20 19 18 18 17 17 17 17 17 17 17 17 16 16 16 15 16 16 15 15 15 15 14 14 14
23 24 23 21 18 16 17 17 20 20 20 19 19 19 19 21 21 20 21 20 19 18 16 16 16 16 17 17 16 16 16 16 16 16 15 15 14 14 15 14 14 13 13
20 18 17 17 17 17 18 17 16 17 18 19 18 19 21 22 19 20 20 19 18 17 16 16 17 16 16 16 17 17 17 17 16 15 15 14 14 14 14 14 13 13 13
19 20 18 18 18 18 17 17 17 17 17 18 18 19 20 20 20 19 18 17 15 15 16 16 16 16 17 17 17 17 17 16 16 15 14 14 14 14 13 13 13 13 12
17 17 20 20 18 17 17 17 17 17 17 14 14 17 18 18 18 18 17 18 16 16 16 17 17 17 17 17 17 17 17 16 16 15 14 14 14 14 14 13 13 13 12
17 17 17 17 16 15 15 16 16 14 14 14 16 17 16 17 16 16 17 18 17 17 17 17 17 17 17 17 17 16 16 15 15 14 14 14 14 13 13 13 12 12 12
17 17 17 16 16 16 15 16 15 15 15 15 16 17 18 16 15 16 17 17 17 17 17 18 17 16 17 17 16 16 15 14 14 14 14 14 13 13 13 12 12 12 12
19 18 18 17 17 17 16 16 16 16 15 15 15 15 15 17 17 17 17 17 18 18 18 17 17 17 17 17 16 15 14 14 14 14 14 13 13 12 12 12 12 12 12
19 19 19 18 18 18 18 17 17 16 15 15 16 15 15 16 17 17 17 17 17 17 17 18 18 17 16 16 15 15 15 15 14 14 13 13 12 12 12 12 12 12 12
20 19 18 18 18 19 19 18 18 17 16 16 16 16 17 17 17 17 17 17 17 17 17 17 17 17 16 16 15 15 14 14 13 13 13 13 12 12 12 11 11 11 11
21 20 19 19 18 18 17 18 17 17 17 17 16 17 16 17 18 18 17 17 17 17 17 17 17 17 17 16 16 15 14 13 13 13 12 12 12 12 11 11 11 11 11
18 19 19 19 19 18 18 17 17 17 16 16 16 17 17 18 18 18 17 17 17 17 17 17 17 16 16 16 16 15 14 13 13 12 12 11 11 11 10 10 11 11 11

GFSGL_925_temp_030.txt.gz
Temp
23 23 23 23 23 23 23 25 26 26 25 25 25 25 24 24 23 23 22 22 22 21 21 21 21 21 21 21 21 21 21 21 20 20 21 21 21 21 21 21 20 20 21
24 23 23 23 23 23 23 24 26 26 25 25 25 25 25 24 24 23 22 22 22 22 21 21 21 21 21 21 20 20 21 21 21 20 20 20 20 20 20 20 20 19 20
24 23 23 23 22 23 23 24 25 26 25 25 25 25 24 24 24 23 23 22 22 22 22 22 22 21 21 21 20 20 20 20 20 20 20 20 20 20 20 19 19 19 19
25 24 23 23 23 23 23 23 24 26 25 25 25 25 25 24 24 24 23 23 22 22 23 22 22 22 21 21 21 21 20 20 19 19 19 19 19 19 19 19 19 19 18
25 24 24 23 23 23 23 23 23 24 25 25 25 24 24 24 25 24 24 23 23 22 22 23 22 22 21 21 21 21 20 19 19 18 17 17 18 18 18 18 18 18 18
25 24 24 24 23 23 23 23 23 23 23 23 23 24 23 24 24 25 25 23 23 23 23 22 21 22 21 21 21 20 20 20 19 18 18 18 19 19 18 17 17 16 16
25 24 24 24 23 23 23 22 23 22 23 23 22 22 22 23 24 24 25 24 23 23 23 22 21 21 21 21 21 20 20 20 20 20 19 19 19 19 18 17 17 16 15
25 24 24 23 23 23 22 22 22 22 22 22 22 22 21 22 23 24 25 24 23 23 23 22 21 22 22 21 20 20 20 20 19 19 19 20 19 18 17 17 16 15 15
24 24 24 23 23 23 22 22 22 22 22 22 21 21 21 21 22 23 24 22 21 21 22 21 21 21 21 21 20 19 20 20 19 19 19 19 18 17 17 16 15 13 14
24 24 24 23 23 23 23 23 22 22 22 21 21 21 22 22 22 23 23 21 19 20 20 20 20 21 20 20 19 20 19 20 19 18 18 18 18 17 17 16 16 15 13
25 24 24 24 23 23 23 23 23 22 22 21 21 21 20 22 22 23 22 20 19 19 18 19 20 20 19 20 19 19 20 20 19 18 18 17 17 17 17 16 16 15 15
25 24 24 24 23 23 23 23 22 22 22 22 21 21 20 20 21 22 22 22 22 20 18 20 20 20 19 19 19 19 19 18 18 17 17 16 16 17 17 16 16 16 15
26 25 24 24 23 24 23 22 22 22 22 22 22 21 21 20 20 21 21 20 21 19 20 21 20 19 19 18 19 18 18 18 17 17 16 16 16 16 16 16 15 15 15
26 26 25 24 24 23 23 22 22 22 22 22 22 22 21 19 19 20 19 18 18 18 19 18 18 18 18 18 18 17 17 17 17 17 16 16 16 16 15 15 15 15 15
23 24 24 25 24 23 23 22 22 22 22 22 22 22 20 18 16 17 16 17 18 18 18 17 17 17 17 17 17 17 17 16 16 16 15 16 15 15 15 15 14 14 14
20 21 23 23 22 20 18 19 21 22 22 22 21 20 18 18 18 17 17 17 18 17 17 15 16 17 16 17 16 16 16 16 16 16 15 15 15 14 14 14 14 13 13
20 19 18 18 18 17 18 18 16 17 21 20 18 19 20 19 18 17 19 18 17 16 16 16 16 17 17 17 17 16 16 17 16 16 15 15 14 14 14 13 13 12 12
18 18 18 18 18 18 18 18 17 17 17 16 18 18 19 19 19 19 18 18 15 16 17 16 17 17 17 16 16 16 16 16 16 15 15 14 14 14 13 13 12 12 12
18 17 18 18 18 17 17 16 16 16 16 16 13 15 18 18 17 18 18 16 14 15 16 17 17 17 17 17 16 16 16 16 16 16 15 14 14 13 13 13 12 12 12
17 17 17 18 17 16 16 16 16 16 15 16 15 13 13 14 12 13 15 15 15 16 17 17 17 17 17 16 16 17 16 16 16 15 14 14 14 13 13 13 13 12 12
17 17 17 17 17 16 15 15 15 15 14 15 14 13 15 15 14 14 16 17 18 18 17 17 17 17 17 16 17 17 17 16 15 15 14 13 13 13 13 13 12 12 12
17 16 16 16 15 15 15 15 15 15 15 14 12 14 15 15 16 17 17 18 18 18 18 18 17 17 17 17 17 17 16 15 15 14 14 14 13 13 12 12 12 11 11
17 17 16 16 15 15 15 14 15 14 14 13 14 14 15 17 17 17 17 18 18 18 17 17 17 17 17 17 17 16 16 15 15 14 14 13 12 12 12 11 11 11 11
17 16 16 16 17 17 17 17 16 15 14 14 13 13 15 17 18 18 18 18 17 17 17 18 18 17 17 16 16 15 15 14 14 14 13 12 12 12 11 11 11 11 11
19 18 19 18 17 16 16 16 15 16 16 16 16 14 14 14 16 17 17 17 17 17 18 17 17 17 17 17 16 15 14 14 13 13 13 12 12 11 11 11 11 11 11
17 17 17 17 17 17 16 15 16 15 15 14 15 14 13 14 14 15 15 16 17 17 17 17 17 17 16 16 15 15 14 14 13 13 12 12 11 11 10 10 10 10 10

GFSGL_925_temp_033.txt.gz
Temp
23 23 23 23 23 23 23 23 23 24 25 24 25 24 24 23 23 23 22 22 22 21 21 20 20 20 21 21 21 21 21 22 23 23 22 21 21 21 20 21 21 21 20
25 24 23 23 23 23 23 23 23 23 24 25 25 24 23 23 23 22 21 21 22 21 20 20 20 20 19 20 20 20 21 21 22 22 22 21 20 20 20 20 20 20 20
25 24 24 24 23 23 23 23 23 23 24 24 24 24 23 22 23 23 22 22 21 21 21 20 20 20 19 21 20 20 21 20 20 21 22 21 20 20 19 19 19 19 19
26 25 25 24 24 24 23 23 23 23 23 24 24 24 23 23 23 23 22 21 21 21 21 21 21 20 20 19 19 19 20 20 20 20 21 21 20 20 19 20 20 18 19
26 26 25 24 24 24 23 23 23 23 23 24 24 24 23 23 23 23 22 21 21 21 21 21 21 21 21 21 21 19 19 19 20 21 21 21 21 20 20 21 20 19 18
26 26 25 25 24 23 23 23 23 23 23 23 23 23 23 23 23 24 25 22 22 21 21 21 21 22 22 22 21 21 20 19 20 21 21 21 21 20 20 19 19 18 21
26 25 25 24 24 23 23 23 23 23 23 22 23 23 23 23 23 25 25 23 22 22 21 21 21 20 21 21 21 21 20 20 20 19 20 20 20 19 19 18 18 18 19
26 25 25 24 24 23 23 23 23 23 23 23 22 22 23 23 23 25 25 24 22 22 22 21 21 20 19 22 20 19 18 19 19 19 19 19 19 18 18 18 17 17 17
26 25 25 24 24 24 23 23 23 23 23 23 23 22 22 23 23 23 24 22 22 21 21 21 20 20 21 22 20 19 19 19 19 20 19 18 19 19 18 17 18 18 19
26 25 25 24 24 24 24 23 23 23 23 23 23 23 22 22 22 22 23 22 22 22 21 20 21 21 21 22 20 20 20 20 18 18 18 18 18 18 17 17 18 19 19
27 26 25 24 24 24 24 23 23 23 24 23 23 23 22 22 22 22 23 22 23 21 21 20 20 21 21 21 20 19 20 20 18 18 18 18 17 16 16 16 16 17 18
26 26 25 24 24 24 23 23 23 23 23 23 23 23 22 22 21 22 21 22 22 22 21 21 19 21 21 20 19 19 19 19 19 19 19 18 18 18 17 16 16 15 16
25 25 25 24 24 24 23 23 23 23 24 23 23 23 23 21 21 21 21 21 21 20 20 19 20 21 20 19 18 18 19 19 19 19 19 19 18 18 16 15 16 15 16
25 25 25 24 24 24 24 23 23 24 24 25 25 24 23 22 21 20 20 20 19 19 19 18 18 18 18 18 17 18 17 18 19 19 19 18 17 16 16 16 16 16 16
25 25 25 25 24 24 24 24 25 25 24 25 25 24 23 20 19 20 19 16 16 16 16 15 16 16 17 16 16 16 16 17 17 18 18 17 16 16 16 15 16 16 16
23 25 26 26 26 25 24 21 23 24 24 24 24 23 21 20 18 18 16 17 18 16 17 16 17 15 15 16 16 16 16 16 17 17 17 17 17 16 16 15 15 16 16
22 20 19 20 22 21 20 20 20 20 22 22 23 22 22 18 17 17 18 19 18 17 17 16 15 15 15 16 15 16 17 17 16 16 17 16 16 16 15 16 15 15 15
19 18 18 18 18 18 19 19 18 18 17 14 16 21 20 17 18 18 17 17 15 16 17 16 16 16 16 16 17 17 18 16 16 16 16 16 16 16 16 16 15 15 15
19 18 18 17 17 17 17 17 17 17 18 15 14 15 16 16 16 16 15 15 15 16 16 16 16 17 17 17 17 17 17 17 16 16 16 16 16 16 16 16 15 14 14
18 17 18 17 17 18 18 17 16 16 16 16 15 15 11 14 13 13 15 15 15 15 16 16 16 17 18 17 17 16 16 15 15 16 16 16 15 16 16 15 15 15 14
17 18 17 19 19 19 17 16 16 16 16 16 16 17 16 14 13 13 15 15 15 15 16 17 17 17 17 16 16 16 16 16 16 16 16 15 15 15 15 15 15 15 15
17 17 18 17 17 17 17 16 16 15 15 14 14 15 15 14 14 14 15 15 16 16 16 17 17 16 16 16 15 16 17 17 16 15 15 15 14 14 14 15 15 15 14
19 17 17 17 18 16 17 16 16 15 15 13 13 13 14 15 15 15 16 16 16 16 17 17 17 16 16 16 16 17 17 17 16 15 15 14 14 14 14 14 14 14 14
19 19 18 17 16 17 16 16 14 14 14 13 13 14 15 15 16 16 16 16 16 16 16 16 17 17 16 16 16 17 16 16 15 14 14 14 14 13 14 14 14 14 14
19 19 18 17 17 16 16 17 15 15 15 14 14 14 14 14 16 16 16 16 16 16 16 16 16 16 16 17 17 16 15 15 14 14 13 13 13 13 13 13 13 13 13
17 17 15 14 15 15 15 16 16 15 14 14 14 15 14 15 15 15 15 16 16 16 16 16 17 17 17 15 15 16 15 14 14 13 13 12 13 13 13 12 13 13 13

GFSGL_925_temp_036.txt.gz
Temp
27 26 26 26 25 25 25 25 26 26 26 26 25 25 25 25 24 23 24 25 23 23 23 24 22 23 25 25 25 25 25 25 26 27 25 23 22 22 23 22 22 22 22
28 26 26 26 26 26 25 25 25 25 26 25 25 25 25 25 25 24 24 25 24 23 23 23 23 23 22 23 24 24 25 25 25 25 25 24 21 22 21 21 22 23 22
28 28 27 27 26 26 25 25 25 25 25 26 25 25 25 25 25 24 24 24 24 23 24 23 23 23 22 24 23 24 24 23 23 24 25 24 24 22 21 21 21 21 21
30 29 28 27 27 26 26 25 25 25 25 25 25 25 25 25 25 25 24 24 24 24 24 24 23 23 23 22 23 22 23 24 23 23 24 25 23 23 22 23 23 22 22
31 30 29 27 27 27 26 25 25 25 25 25 25 25 25 26 26 25 25 25 24 24 24 23 23 23 23 22 23 22 23 22 24 24 24 25 24 24 23 23 23 23 22
31 30 29 28 27 26 26 25 25 25 25 25 25 25 25 26 27 26 25 25 25 24 24 24 23 23 22 22 22 23 22 22 23 25 25 25 24 23 23 23 23 23 23
30 29 29 28 27 26 26 25 25 25 25 25 25 25 25 25 26 26 25 25 25 25 24 24 24 24 22 21 20 21 22 21 22 22 22 23 24 22 22 22 21 21 21
29 29 28 27 27 26 26 25 25 25 25 25 25 25 25 25 25 26 25 24 25 25 24 24 24 24 23 22 21 20 20 20 20 21 22 22 21 21 20 20 20 19 20
29 28 28 27 27 26 26 25 25 25 25 25 25 25 25 25 25 25 25 23 24 25 25 24 24 23 24 22 22 22 20 20 20 20 20 21 20 20 20 20 20 20 22
29 28 28 27 27 26 26 25 25 25 25 26 26 25 25 25 25 24 24 24 25 25 25 24 23 23 23 22 21 22 21 20 21 20 18 19 19 19 19 19 20 21 21
29 29 28 27 27 26 26 25 25 25 26 25 26 26 25 25 25 24 24 23 26 26 27 26 24 23 22 22 21 20 21 21 21 20 19 19 19 19 18 18 19 20 21
29 29 28 27 27 27 26 25 25 25 25 26 25 25 25 25 24 25 24 23 25 27 27 27 26 24 22 21 21 20 20 20 20 19 19 21 20 21 20 20 18 18 19
29 28 28 27 26 27 26 25 25 25 26 26 26 26 26 27 25 24 24 23 23 24 27 27 25 24 22 20 19 18 19 18 18 19 20 21 21 21 21 19 17 17 16
28 28 27 27 26 26 27 26 27 27 27 27 27 27 27 28 28 26 23 21 21 21 22 23 22 21 20 19 17 17 17 19 18 19 21 21 21 21 19 19 18 18 19
27 28 28 28 26 27 27 28 28 28 28 28 28 28 29 30 29 27 22 18 19 18 17 18 18 17 15 16 16 17 17 17 18 20 21 21 20 19 19 19 19 19 19
28 29 30 30 29 28 28 27 27 27 26 26 26 27 29 28 27 25 22 21 20 16 17 16 15 16 16 16 17 18 16 17 18 19 20 20 20 20 20 19 19 19 20
26 25 26 25 30 30 29 29 30 26 24 24 24 24 25 24 24 24 22 20 18 17 17 16 16 17 17 17 16 16 16 17 18 19 19 20 20 20 19 19 19 19 19
21 19 24 21 21 21 20 20 21 21 21 22 19 20 21 21 23 22 20 17 15 17 17 17 17 16 17 17 16 16 16 18 19 19 20 20 20 20 19 20 20 19 19
24 22 20 21 20 19 18 16 16 16 15 14 14 13 12 12 11 11 14 16 16 17 17 17 17 18 17 17 17 19 19 19 20 19 20 20 20 20 20 20 20 18 18
20 19 20 21 21 20 21 19 17 16 15 16 15 15 14 15 16 15 14 14 15 16 19 20 19 19 18 19 19 20 20 20 19 19 19 20 20 20 20 19 19 18 17
23 22 21 23 24 23 22 21 20 18 16 16 16 16 18 17 16 17 17 15 15 16 17 19 20 20 19 18 19 20 20 19 19 19 20 20 19 19 19 19 19 18 19
20 23 24 23 23 22 22 21 22 21 20 19 17 15 16 15 14 14 14 15 16 16 17 18 19 18 18 19 19 20 19 19 20 20 20 19 19 19 19 19 18 18 18
23 22 22 21 21 19 21 21 19 17 17 16 15 16 15 14 15 15 15 15 16 16 17 17 18 19 19 19 19 20 20 20 19 19 19 19 18 18 18 18 18 18 18
23 23 22 20 19 22 21 19 16 14 14 14 15 15 15 15 15 15 16 16 17 18 19 19 20 19 19 19 19 20 20 20 19 18 18 18 18 17 18 18 18 18 18
21 21 21 21 21 21 21 21 19 19 17 15 15 15 16 16 17 18 18 18 18 18 19 19 19 19 19 19 20 20 18 18 18 18 17 17 17 17 17 17 17 17 17
19 19 17 15 15 15 16 17 17 17 18 18 18 17 17 17 18 19 19 20 20 20 20 20 19 19 19 19 19 18 17 16 16 16 16 16 16 16 16 17 16 17 17

GFSGL_925_temp_042.txt.gz
Temp
26 26 26 25 25 25 26 27 27 28 28 29 27 26 26 26 25 25 25 26 26 25 25 25 24 25 26 27 27 27 27 27 26 27 27 26 25 25 24 23 23 23 23
27 27 26 26 26 25 25 27 27 27 28 28 28 27 26 26 25 25 25 25 26 25 25 25 25 24 25 26 26 27 27 27 27 26 26 25 25 25 24 23 22 23 23
28 27 27 26 26 26 26 26 27 27 27 27 28 27 26 26 26 25 25 25 26 25 24 24 25 24 24 25 26 26 26 26 26 26 25 25 25 24 23 23 22 22 23
31 29 28 28 27 27 27 26 26 27 26 27 27 27 26 26 26 26 25 25 25 25 25 24 24 24 24 24 25 25 25 25 26 25 25 25 25 25 23 23 22 22 22
32 31 29 28 28 28 27 27 26 26 27 26 26 27 26 26 26 26 26 25 25 25 25 25 24 24 24 24 23 24 25 25 25 24 24 25 25 25 23 24 24 24 23
33 32 31 29 28 28 28 27 27 26 26 26 26 26 27 26 26 26 26 26 25 25 25 25 25 24 24 24 24 24 24 24 24 24 24 24 25 25 25 24 24 23 22
34 33 32 30 29 28 28 28 27 27 26 26 26 26 26 26 27 27 26 26 26 25 25 25 25 25 25 24 24 24 24 24 24 24 24 25 25 26 25 24 24 23 23
34 33 32 31 30 29 28 28 27 27 27 26 26 26 26 26 26 27 27 27 26 26 26 25 25 25 25 25 24 24 23 24 24 24 24 25 25 24 24 24 23 23 22
33 32 32 31 31 29 28 27 27 27 27 26 26 26 26 26 26 26 27 27 26 26 26 26 25 25 25 25 24 23 22 22 23 23 23 23 23 23 23 22 21 21 20
33 32 32 31 31 30 29 28 27 27 27 27 27 27 26 26 26 26 26 26 26 26 26 26 26 25 25 25 25 23 22 22 22 22 22 22 22 22 22 22 21 20 20
32 32 31 31 30 30 29 28 27 27 27 27 27 27 27 26 26 26 26 26 26 26 26 26 25 26 26 25 25 24 23 23 21 22 21 21 21 21 21 20 21 21 21
35 32 31 31 29 30 29 28 27 27 27 27 26 26 27 26 26 26 26 26 26 26 26 27 27 27 26 26 25 25 24 23 22 20 20 19 19 19 20 19 20 20 20
33 33 31 30 29 29 29 28 27 27 27 26 27 27 27 27 27 26 26 26 26 25 25 26 27 27 28 27 26 25 25 23 22 20 19 18 18 19 19 19 19 19 19
31 31 30 30 29 28 29 28 27 27 27 27 27 27 28 28 28 27 28 27 26 26 25 25 25 25 26 25 23 23 24 22 21 20 19 19 18 19 18 19 18 18 17
30 30 29 29 29 28 28 29 28 28 28 28 28 28 29 29 28 26 27 25 25 26 25 24 23 23 24 23 21 21 19 21 20 20 20 18 18 18 17 18 18 17 17
29 29 30 30 29 28 28 28 26 28 29 28 27 28 26 25 26 26 26 26 26 26 24 23 23 23 22 20 19 19 19 20 20 20 19 18 18 17 17 17 17 17 17
29 30 30 30 31 29 29 28 27 20 21 23 24 23 23 22 23 24 24 24 23 24 23 21 21 20 19 19 19 19 19 19 20 19 18 18 17 17 17 16 16 18 18
27 28 30 30 28 27 28 28 29 25 24 23 22 22 22 22 22 23 23 19 20 20 21 20 19 19 19 18 18 18 19 19 19 19 18 17 17 17 16 16 17 19 19
27 27 28 24 24 24 24 24 24 23 23 22 22 20 20 19 18 17 17 16 17 17 17 17 17 18 18 18 17 17 17 17 18 17 17 17 16 16 16 17 18 19 19
24 25 26 24 24 23 24 23 22 22 22 22 21 20 19 19 17 15 16 16 16 16 17 17 18 17 17 17 17 17 17 17 17 17 17 17 16 16 16 18 19 19 20
25 25 25 25 25 25 24 23 23 23 22 22 22 19 19 18 18 16 16 16 17 17 17 17 17 17 17 17 17 17 17 17 17 17 17 16 16 17 19 20 20 20 20
26 26 27 27 26 24 25 24 24 23 23 22 21 18 19 20 20 18 17 18 18 18 17 17 17 17 17 17 17 16 16 16 17 17 17 17 17 18 20 20 21 21 20
25 25 24 24 24 23 22 21 19 18 18 18 18 19 19 19 19 18 17 17 18 18 17 17 17 17 17 16 17 17 17 17 17 18 17 18 19 21 21 21 21 21 20
21 22 22 21 21 22 21 19 18 18 18 18 17 17 17 18 18 18 18 18 18 18 17 17 17 18 18 17 17 18 18 19 19 20 20 21 21 21 21 21 21 21 21
19 18 18 18 18 18 18 18 16 16 16 14 14 14 15 17 19 18 20 19 19 19 18 17 16 17 17 17 18 19 20 20 20 20 20 21 21 21 20 21 21 21 21
16 17 16 16 15 15 14 14 14 13 13 13 12 12 12 12 13 14 14 15 15 19 20 20 19 19 18 19 19 20 20 20 20 20 20 20 20 20 20 20 20 20 20

GFSGL_925_temp_045.txt.gz
Temp
24 24 24 23 24 24 25 26 27 27 28 28 28 27 26 26 25 25 25 25 25 25 24 24 25 26 26 26 26 27 27 27 25 26 26 26 25 25 25 24 23 22 23
25 24 24 24 24 24 24 25 27 27 28 28 27 27 26 26 25 25 25 25 25 25 25 24 24 24 25 26 26 26 27 27 26 26 26 25 25 25 25 23 23 23 23
25 25 24 24 24 24 24 24 26 27 27 28 27 27 27 26 26 25 25 25 25 25 25 25 25 24 25 25 26 25 26 26 26 26 26 25 25 24 23 23 24 24 23
26 25 25 24 25 24 24 24 25 25 26 26 28 27 26 26 26 26 25 25 25 25 25 25 25 25 25 25 25 26 25 25 26 26 25 25 24 24 24 23 22 23 23
27 27 26 25 25 25 25 24 24 25 25 26 26 27 27 26 26 26 26 25 25 25 25 25 25 25 25 25 25 25 25 25 25 25 24 24 25 24 22 23 23 23 23
30 27 27 26 26 25 25 25 25 24 25 25 25 25 26 26 26 26 25 25 24 24 24 25 25 24 24 25 25 25 26 25 23 23 23 23 24 25 24 22 22 21 20
30 30 28 27 26 26 26 26 25 25 25 25 25 25 25 25 26 26 25 25 24 24 24 24 24 24 24 24 24 24 24 25 25 24 23 23 23 24 24 23 22 22 22
31 30 29 28 27 26 26 26 26 25 25 25 25 25 25 25 25 26 26 25 25 24 24 24 24 24 24 24 24 23 23 23 23 23 24 24 24 25 25 25 24 22 22
31 29 29 28 27 27 26 26 26 26 26 26 25 25 25 25 25 25 25 26 25 25 24 24 24 24 24 24 24 23 22 22 23 23 24 24 24 24 25 24 23 22 20
31 30 30 29 28 27 27 27 26 26 26 26 26 25 25 25 25 25 25 25 24 25 25 24 24 24 24 24 24 23 22 22 22 21 22 23 23 23 23 23 23 21 21
32 33 33 32 31 29 28 27 26 26 26 26 26 26 25 25 25 25 25 25 25 25 25 25 25 24 24 24 24 24 24 23 22 21 21 22 21 22 22 22 23 22 21
33 31 32 32 31 29 29 27 26 26 26 26 26 25 25 25 25 25 25 25 25 25 25 25 25 25 25 25 25 24 24 24 23 21 21 21 20 20 21 22 22 22 22
32 32 31 31 31 30 29 28 26 26 26 25 25 25 25 25 26 26 26 26 26 25 25 25 25 25 25 26 26 25 25 24 23 22 20 20 19 20 19 20 21 21 20
30 30 30 29 29 29 29 28 27 26 25 26 25 25 26 26 26 26 26 26 26 26 26 25 25 25 25 25 25 25 24 21 21 22 22 21 20 18 17 17 18 18 17
29 29 30 29 28 28 28 27 26 27 26 25 25 26 26 25 26 25 25 26 26 26 24 23 22 22 22 22 23 23 23 23 20 20 21 21 20 18 18 17 17 17 17
27 29 28 28 28 27 26 23 24 26 27 27 27 27 23 25 24 24 25 25 25 24 23 22 21 22 22 22 22 22 21 21 20 20 20 21 20 19 18 17 17 17 17
25 27 28 28 28 27 27 24 18 18 21 22 23 24 23 23 24 24 24 24 25 23 23 23 21 21 22 22 22 21 20 20 19 19 20 20 20 19 18 18 17 17 16
25 26 27 27 27 27 26 26 21 18 18 18 19 20 20 21 22 23 23 23 20 19 19 20 19 19 19 20 19 19 19 19 19 19 18 17 18 18 17 17 17 16 16
24 24 25 24 24 24 24 23 22 22 21 19 19 19 19 19 20 20 19 17 17 17 17 17 17 18 19 19 19 18 18 18 18 17 18 17 18 18 17 17 16 16 16
24 24 24 24 23 22 22 22 22 21 21 20 19 19 19 19 18 17 17 17 17 17 18 18 18 18 18 18 17 17 17 17 17 17 18 17 16 17 16 16 16 15 16
24 24 24 23 23 22 22 21 22 22 21 19 19 19 19 18 18 18 18 18 17 18 18 18 18 17 17 17 16 17 17 17 17 17 16 16 16 16 15 16 16 16 17
25 25 25 22 22 22 20 19 18 18 18 18 19 19 19 19 19 18 17 17 17 18 18 18 17 17 17 17 16 16 16 16 17 16 16 16 16 16 16 16 16 17 17
23 23 22 20 20 19 18 18 17 18 18 18 18 19 19 19 18 19 18 18 17 18 18 17 17 17 17 17 17 17 16 17 17 16 17 16 16 17 17 18 19 18 18
19 19 19 19 18 17 17 16 16 16 15 15 15 14 15 16 15 14 16 17 18 18 18 17 17 17 17 17 17 17 17 17 17 17 17 17 17 17 18 19 19 19 18
16 15 15 16 15 15 14 14 14 13 13 12 12 13 13 13 13 13 14 14 15 17 16 16 16 17 18 18 18 18 18 19 19 19 19 19 19 19 20 20 20 20 20
10 12 14 13 13 13 13 12 11 11 10 10 10 9 10 10 10 12 12 13 13 13 14 15 17 17 17 17 18 19 19 19 19 20 20 20 20 20 21 21 20 20 20

GFSGL_925_temp_048.txt.gz
Temp
24 24 24 23 24 24 24 25 26 26 26 26 27 27 26 26 26 25 25 25 24 24 24 24 25 25 26 26 25 26 26 26 24 26 26 25 26 25 24 24 24 23 23
24 24 23 23 23 23 23 24 25 26 26 26 26 26 26 26 26 25 25 25 24 24 24 24 24 25 25 26 26 25 26 26 26 25 26 26 25 25 25 25 24 24 23
24 24 23 23 23 23 23 23 24 25 26 27 26 26 26 27 26 26 25 25 25 25 24 24 24 24 24 25 25 25 25 25 25 25 26 26 25 25 25 24 24 24 23
24 24 23 23 23 23 23 23 23 24 25 26 26 27 26 26 26 26 26 25 25 25 25 24 24 24 24 24 25 25 25 25 25 24 24 25 25 24 24 24 23 23 22
24 24 24 24 24 23 23 23 24 24 24 25 26 26 26 26 25 25 25 26 25 25 25 25 24 25 25 25 25 25 25 24 24 23 22 23 24 23 22 23 22 23 23
25 24 24 24 23 24 23 23 23 23 24 24 25 25 25 25 25 26 26 25 25 24 24 25 25 25 24 25 25 25 24 24 23 21 22 21 23 23 24 23 22 20 19
26 25 25 24 24 24 24 23 23 23 23 24 24 24 24 25 25 25 25 25 24 24 24 24 24 24 25 24 24 24 24 24 24 24 22 23 22 23 23 23 21 21 21
27 26 26 25 25 24 24 24 24 24 23 23 23 24 24 24 24 25 25 25 24 24 24 24 23 23 24 24 24 23 23 24 24 23 23 24 24 23 23 24 24 23 22
28 28 26 26 25 25 24 24 24 24 24 24 24 24 24 24 24 24 24 24 24 24 24 23 23 23 23 23 23 22 22 23 23 24 24 24 24 23 23 22 22 20 19
29 28 28 27 26 26 25 25 25 25 25 24 24 24 24 24 24 24 24 24 23 23 23 24 23 23 23 23 23 22 22 22 22 22 22 21 22 23 23 22 22 20 20
29 29 28 28 27 27 26 26 25 25 25 25 25 25 24 24 24 24 24 24 24 24 24 24 24 24 24 23 23 23 23 23 23 22 21 21 20 21 21 21 22 22 21
31 30 29 28 28 27 26 26 26 26 25 25 25 25 25 25 24 24 24 24 24 24 24 24 24 24 24 24 24 24 24 23 23 23 22 21 21 20 19 20 20 21 20
30 30 29 29 29 28 27 26 25 25 25 25 25 25 25 24 25 25 25 25 25 24 24 24 24 24 25 24 24 24 25 24 21 21 22 22 21 22 21 19 18 19 19
27 29 29 28 28 28 27 26 25 24 25 25 24 25 25 24 25 25 25 25 25 25 25 24 24 24 24 24 24 24 24 23 21 21 21 22 22 21 20 19 18 18 18
26 26 28 28 28 26 25 25 25 25 25 24 24 24 24 24 25 26 26 26 26 26 25 24 23 22 22 22 22 22 22 22 21 20 20 20 21 21 20 19 18 18 18
24 25 25 27 27 24 24 21 22 24 25 25 26 25 25 25 25 25 25 25 25 24 23 22 22 22 22 22 22 22 22 21 21 20 19 19 20 20 20 20 18 18 18
24 24 25 25 25 23 21 22 18 18 21 24 25 25 24 25 24 24 24 24 24 23 22 22 21 21 21 21 21 21 21 21 20 19 19 19 19 19 19 19 19 18 18
24 24 25 26 26 25 23 21 20 18 18 18 20 21 22 22 23 23 24 23 21 20 19 19 19 19 19 20 20 20 19 19 19 18 18 17 18 17 17 17 16 16 16
23 24 23 25 24 25 25 22 20 19 18 17 18 18 19 20 21 21 21 20 18 17 18 18 18 18 18 18 18 18 18 18 17 17 17 18 17 17 16 17 16 16 16
23 23 23 23 23 21 20 20 19 18 17 17 17 17 18 18 18 18 18 18 18 18 18 18 18 18 18 18 18 17 17 17 18 17 17 17 17 17 17 16 16 15 15
22 23 23 22 22 22 21 20 19 18 18 18 18 18 18 18 18 18 17 17 17 17 17 17 17 17 17 17 17 16 16 17 17 17 17 17 17 16 16 16 15 15 15
22 23 22 21 20 19 19 19 18 18 18 18 18 18 18 18 18 18 17 17 17 17 18 18 17 17 17 17 16 16 16 16 17 16 16 16 16 16 15 15 15 15 15
23 21 20 19 18 17 17 16 16 16 16 16 16 16 16 15 16 16 16 17 16 17 17 17 17 17 17 17 17 16 16 16 16 16 16 16 16 16 15 15 15 15 15
19 18 17 17 16 16 16 15 14 14 14 13 13 13 13 13 13 13 14 15 16 17 16 16 16 16 16 16 16 17 17 17 17 17 16 16 17 16 16 16 17 16 16
13 14 15 14 14 13 13 12 12 12 11 11 10 10 10 11 11 11 12 12 13 14 14 15 16 16 15 16 16 16 17 17 18 18 17 17 17 17 17 18 18 17 17
9 10 11 11 11 11 10 10 9 9 9 8 9 9 9 9 9 9 10 11 11 12 12 12 13 14 15 16 16 17 18 19 19 19 19 18 18 18 18 18 18 18 18